User: anonymous
Location: SAPM � Hemmingford
(45.0500°N, 73.5833°W)
Time: 10:23:28
(UTC-04:00)
Language:

Cosmos 1674 Rocket - Orbit

View from above orbital plane
View from above orbital plane
View from above satellite
View from above satellite

Ground track
Ground track

The orbit data is extracted from the following two-line orbital elements,

1 15945U 85069B   14264.82353794  .00000309  00000-0  34715-4 0  7691
2 15945 082.5304 348.7102 0019007 343.3233 156.6758 14.83408886572845
Epoch (UTC): 21 September 2014 19:45:53
Eccentricity: 0.0019007
inclination: 82.5304°
perigee height: 605 km
apogee height: 632 km
right ascension of ascending node: 348.7102°
argument of perigee: 343.3233°
revolutions per day: 14.83408886
mean anomaly at epoch: 156.6758°
orbit number at epoch: 57284

The dashed part of the orbit path shows where the satellite is in the earth's shadow,  

DLR